Weather History for Marshfield, WI

Change the Weather History Date:

Monday, September 8, 2014

  Actual Average Record
Temperature  
Mean Temperature 62 °F -  
Max Temperature 72 °F 74 °F 97 °F (1933)
Min Temperature 52 °F 51 °F 35 °F (1944)
Degree Days  
Heating Degree Days 4    
Growing Degree Days 12 (Base 50)    
Moisture  
Dew Point 54 °F    
Average Humidity 76    
Maximum Humidity 97    
Minimum Humidity 51    
Precipitation  
Precipitation 0.03 in - - ()
Sea Level Pressure  
Sea Level Pressure 30.02 in    
Wind  
Wind Speed 6 mph (South)    
Max Wind Speed 18 mph    
Max Gust Speed 24 mph    
Visibility 10 miles    
Events Rain , Thunderstorm    
Averages and records for this station are not official NWS values.
T = Trace of Precipitation, MM = Missing Value Source: NWS Daily Summary

Daily Weather History Graph

Daily Weather History Graph

Search for Another Location

Airport:

Trip Planner

Search our weather history database for the weather conditions in past years. The results will help you decide how hot, cold, wet, or windy it might be!

Date:

Astronomy

Sep. 08, 2014 Rise Set
Actual Time 6:31 AM CDT 7:24 PM CDT
Civil Twilight 6:01 AM CDT 7:54 PM CDT
Nautical Twilight 5:26 AM CDT 8:29 PM CDT
Astronomical Twilight 4:49 AM CDT 9:06 PM CDT
Moon 7:03 PM CDT (9/8) 5:56 AM CDT (9/8)
Length of Visible Light 13h 52m
Length of Day
12h 53m
Full, 100% of the Moon is Illuminated
Sep 8
Full
Sep 8
Full
Sep 15
Last Quarter
Sep 24
New
Oct 1
First Quarter

Hourly Weather History & Observations

Time (CDT) Temp. Dew Point Humidity Pressure Visibility Wind Dir Wind Speed Gust Speed Precip Events Conditions
12:54 AM 55.9 °F 52.0 °F 87% 30.09 in 10.0 mi Calm Calm - N/A   Clear
1:54 AM 55.9 °F 52.0 °F 87% 30.09 in 10.0 mi South 3.5 mph - N/A   Clear
2:54 AM 55.9 °F 52.0 °F 87% 30.09 in 10.0 mi South 4.6 mph - N/A   Clear
3:54 AM 54.0 °F 51.1 °F 90% 30.09 in 10.0 mi South 4.6 mph - N/A   Clear
4:54 AM 54.0 °F 52.0 °F 93% 30.09 in 10.0 mi SSE 3.5 mph - N/A   Clear
5:54 AM 53.1 °F 51.1 °F 93% 30.08 in 10.0 mi Calm Calm - N/A   Clear
6:54 AM 52.0 °F 51.1 °F 97% 30.09 in 9.0 mi SSE 3.5 mph - N/A   Clear
7:54 AM 57.0 °F 54.0 °F 89% 30.07 in 10.0 mi South 5.8 mph - N/A   Clear
8:54 AM 62.1 °F 55.9 °F 80% 30.06 in 10.0 mi South 8.1 mph - N/A   Clear
9:54 AM 66.9 °F 55.0 °F 66% 30.06 in 10.0 mi SSW 9.2 mph - N/A   Clear
10:54 AM 71.1 °F 53.1 °F 53% 30.05 in 10.0 mi SSW 18.4 mph 24.2 mph N/A   Clear
11:54 AM 71.1 °F 52.0 °F 51% 30.04 in 10.0 mi SSW 13.8 mph 24.2 mph N/A   Partly Cloudy
12:54 PM 70.0 °F 51.1 °F 51% 30.03 in 10.0 mi SSW 16.1 mph - N/A   Clear
1:54 PM 70.0 °F 52.0 °F 53% 29.99 in 10.0 mi South 11.5 mph 23.0 mph N/A   Mostly Cloudy
2:54 PM 69.1 °F 53.1 °F 57% 29.99 in 10.0 mi South 13.8 mph - N/A   Partly Cloudy
3:54 PM 68.0 °F 54.0 °F 61% 29.98 in 10.0 mi South 8.1 mph - 0.00 in Rain Light Rain
4:54 PM 68.0 °F 55.9 °F 65% 29.96 in 10.0 mi SSE 8.1 mph - 0.00 in   Overcast
5:54 PM 66.9 °F 55.9 °F 68% 29.96 in 10.0 mi South 6.9 mph - N/A   Overcast
6:54 PM 66.9 °F 55.9 °F 68% 29.95 in 10.0 mi SSE 9.2 mph - N/A   Overcast
7:54 PM 61.0 °F 55.0 °F 81% 29.95 in 10.0 mi SSE 4.6 mph - N/A   Clear
8:54 PM 60.1 °F 54.0 °F 80% 29.97 in 10.0 mi South 6.9 mph - N/A   Scattered Clouds
9:54 PM 62.1 °F 55.0 °F 78% 29.97 in 10.0 mi SSW 8.1 mph - N/A Thunderstorm Mostly Cloudy
10:09 PM 61.0 °F 55.9 °F 83% 29.97 in 5.0 mi South 6.9 mph - 0.01 in Rain Rain
10:54 PM 60.1 °F 55.9 °F 86% 29.96 in 10.0 mi South 6.9 mph - 0.03 in   Overcast
11:54 PM 60.1 °F 55.9 °F 86% 29.94 in 10.0 mi South 6.9 mph - N/A   Mostly Cloudy